South Bend, IN

4:22 AM EST on February 18, 2018 (GMT -0500)
South Bend Regional

Weather History for KSBN - December, 2012

Change the Weather History Date:

Monday, December 10, 2012

  Actual Average Record
Temperature  
Mean Temperature 36 °F 30 °F  
Max Temperature 41 °F 37 °F 64 °F (1971)
Min Temperature 31 °F 24 °F -10 °F (1958)
Degree Days  
Heating Degree Days 29 35  
Month to date heating degree days 213 331  
Since 1 July heating degree days 1534 1600  
Cooling Degree Days 0 0  
Month to date cooling degree days 0 0  
Year to date cooling degree days 1115 773  
Moisture  
Dew Point 30 °F    
Average Humidity 87    
Maximum Humidity 92    
Minimum Humidity 82    
Precipitation  
Precipitation 0.02 in 0.09 in 1.39 in (1971)
Month to date precipitation 1.10 0.91  
Year to date precipitation 32.36 36.30  
Snow  
Snow 0.30 in 0.60 in 5.80 in (1997)
Month to date snowfall 0.3 4.4  
Since 1 July snowfall 0.3 9.6  
Snow Depth 0.00 in    
Sea Level Pressure  
Sea Level Pressure 29.76 in    
Wind  
Wind Speed 11 mph (West)    
Max Wind Speed 22 mph    
Max Gust Speed 25 mph    
Visibility 6 miles    
Events Fog , Rain , Snow    
T = Trace of Precipitation, MM = Missing Value Source: NWS Daily Summary

Daily Weather History Graph

Daily Weather History Graph

Search for Another Location

Airport or City:

Trip Planner

Search our weather history database for the weather conditions in past years. The results will help you decide how hot, cold, wet, or windy it might be!

Date:

Astronomy

Dec. 10, 2012 Rise Set
Actual Time 8:01 AM EST 5:14 PM EST
Civil Twilight 7:30 AM EST 5:46 PM EST
Nautical Twilight 6:55 AM EST 6:21 PM EST
Astronomical Twilight 6:21 AM EST 6:54 PM EST
Moon 4:43 AM EST (12/10) 3:04 PM EST (12/10)
Length of Visible Light 10h 15m
Length of Day
9h 12m
Waning Crescent, 10% of the Moon is Illuminated
Dec 10
Waning Crescent
Dec 13
New
Dec 20
First Quarter
Dec 28
Full
Jan 4
Last Quarter

Hourly Weather History & Observations

Time (EST) Temp. Windchill Dew Point Humidity Pressure Visibility Wind Dir Wind Speed Gust Speed Precip Events Conditions
12:54 AM 41.0 °F 35.8 °F - N/A% 29.71 in 10.0 mi West 8.1 mph - N/A   Overcast
1:24 AM 39.2 °F 31.2 °F - N/A% 29.69 in 10.0 mi WSW 13.8 mph - N/A   Overcast
1:54 AM 39.0 °F 30.3 °F - N/A% 29.71 in 10.0 mi West 16.1 mph 25.3 mph N/A   Overcast
2:02 AM 39.2 °F 29.8 °F - N/A% 29.70 in 10.0 mi West 18.4 mph - N/A   Overcast
2:54 AM 39.0 °F 33.4 °F - N/A% 29.71 in 10.0 mi WSW 8.1 mph - N/A   Overcast
3:54 AM 37.9 °F 30.5 °F - N/A% 29.71 in 10.0 mi WSW 11.5 mph - N/A   Overcast
4:39 AM 37.4 °F 29.8 °F - N/A% 29.69 in 10.0 mi West 11.5 mph - N/A   Overcast
4:54 AM 37.9 °F 30.0 °F - N/A% 29.70 in 10.0 mi West 12.7 mph - N/A   Overcast
5:54 AM 37.9 °F 32.1 °F 33.1 °F 83% 29.70 in 10.0 mi WSW 8.1 mph - N/A   Overcast
6:21 AM 35.6 °F 25.9 °F 32.0 °F 87% 29.68 in 9.0 mi West 16.1 mph 25.3 mph N/A   Overcast
6:36 AM 35.6 °F 26.2 °F 30.2 °F 81% 29.69 in 10.0 mi West 15.0 mph - N/A   Overcast
6:54 AM 34.0 °F 23.0 °F 30.0 °F 85% 29.73 in 10.0 mi West 18.4 mph 24.2 mph N/A   Overcast
7:19 AM 33.8 °F 23.5 °F 28.4 °F 81% 29.72 in 10.0 mi West 16.1 mph - N/A   Overcast
7:54 AM 33.1 °F 24.4 °F 28.9 °F 85% 29.75 in 9.0 mi WSW 11.5 mph - N/A   Overcast
8:54 AM 32.0 °F 24.2 °F 28.0 °F 85% 29.75 in 7.0 mi WSW 9.2 mph - N/A   Overcast
9:54 AM 32.0 °F 23.0 °F 28.0 °F 85% 29.76 in 5.0 mi WSW 11.5 mph - N/A   Overcast
10:54 AM 30.9 °F 20.2 °F 27.0 °F 85% 29.79 in 5.0 mi SW 15.0 mph - N/A   Overcast
11:35 AM 30.2 °F 20.2 °F 28.4 °F 93% 29.77 in 4.0 mi WSW 12.7 mph - N/A   Overcast
11:45 AM 30.2 °F 19.3 °F 28.4 °F 93% 29.76 in 2.5 mi WSW 15.0 mph - 0.00 in Rain Light Freezing Rain
11:54 AM 30.9 °F 20.7 °F 28.0 °F 89% 29.78 in 2.0 mi WSW 13.8 mph - 0.00 in Rain Light Freezing Rain
12:45 PM 32.0 °F 22.1 °F 30.2 °F 93% 29.73 in 1.5 mi WSW 13.8 mph - 0.00 in Rain Light Freezing Rain
12:54 PM 32.0 °F 22.5 °F 30.0 °F 92% 29.75 in 2.0 mi WSW 12.7 mph - 0.00 in Rain Light Freezing Rain
1:04 PM 32.0 °F 22.5 °F 30.2 °F 93% 29.73 in 1.8 mi WSW 12.7 mph - 0.00 in Rain Light Freezing Rain
1:24 PM 32.0 °F 23.0 °F 30.2 °F 93% 29.73 in 2.0 mi WSW 11.5 mph - 0.00 in Rain Light Freezing Rain
1:31 PM 32.0 °F 23.6 °F 30.2 °F 93% 29.73 in 1.5 mi WSW 10.4 mph - 0.00 in Snow Light Snow
1:38 PM 32.0 °F 23.6 °F 30.2 °F 93% 29.73 in 0.8 mi WSW 10.4 mph - 0.00 in Snow Light Snow
1:54 PM 32.0 °F 23.0 °F 30.0 °F 92% 29.75 in 0.8 mi WSW 11.5 mph - 0.01 in Snow Light Snow
2:28 PM 32.0 °F 24.8 °F 30.2 °F 93% 29.74 in 0.5 mi WSW 8.1 mph - 0.01 in Fog , Snow Snow
2:37 PM 32.0 °F 24.2 °F 30.2 °F 93% 29.74 in 0.2 mi WSW 9.2 mph - 0.03 in Fog , Snow Heavy Snow
2:51 PM 32.0 °F 25.6 °F 30.2 °F 93% 29.74 in 0.5 mi WSW 6.9 mph - 0.05 in Fog , Snow Snow
2:54 PM 32.0 °F 25.6 °F 30.9 °F 96% 29.76 in 0.5 mi WSW 6.9 mph - 0.06 in Fog , Snow Snow
3:18 PM 33.8 °F 30.8 °F 30.2 °F 87% 29.74 in 0.8 mi NW 3.5 mph - 0.02 in Snow Light Snow
3:30 PM 33.8 °F 29.6 °F 30.2 °F 87% 29.74 in 1.8 mi WNW 4.6 mph - 0.02 in Snow Light Snow
3:35 PM 33.8 °F 30.8 °F 30.2 °F 87% 29.74 in 3.0 mi NW 3.5 mph - 0.02 in Snow Light Snow
3:54 PM 33.1 °F - 32.0 °F 96% 29.77 in 4.0 mi Calm Calm - 0.02 in   Overcast
4:37 PM 33.8 °F - 32.0 °F 93% 29.77 in 2.5 mi Calm Calm - 0.00 in Snow Light Snow
4:40 PM 33.8 °F - 32.0 °F 93% 29.77 in 4.0 mi Calm Calm - 0.00 in Snow Light Snow
4:54 PM 34.0 °F 29.8 °F 30.9 °F 89% 29.80 in 8.0 mi NW 4.6 mph - 0.00 in Rain Light Rain
5:16 PM 33.8 °F 26.4 °F 30.2 °F 87% 29.79 in 10.0 mi NW 9.2 mph - 0.00 in   Overcast
5:54 PM 34.0 °F 29.8 °F 30.0 °F 85% 29.83 in 10.0 mi NW 4.6 mph - 0.00 in   Overcast
6:54 PM 34.0 °F 28.8 °F 28.9 °F 82% 29.83 in 10.0 mi NNW 5.8 mph - 0.00 in   Overcast
7:54 PM 34.0 °F 26.6 °F 28.9 °F 82% 29.87 in 9.0 mi WNW 9.2 mph - 0.00 in Snow Light Snow
8:54 PM 32.0 °F 25.6 °F 30.0 °F 92% 29.89 in 4.0 mi WNW 6.9 mph - 0.01 in Snow Light Snow
9:54 PM 32.0 °F 26.4 °F 30.0 °F 92% 29.90 in 3.0 mi NNW 5.8 mph - 0.00 in Snow Light Snow
10:54 PM 32.0 °F 26.4 °F 30.0 °F 92% 29.92 in 10.0 mi WSW 5.8 mph - 0.00 in   Overcast
11:29 PM 32.0 °F 27.5 °F 28.4 °F 87% 29.91 in 10.0 mi WSW 4.6 mph - N/A   Overcast
11:54 PM 32.0 °F 28.7 °F 28.9 °F 88% 29.92 in 9.0 mi NW 3.5 mph - 0.00 in   Overcast